TimeCST,TemperatureF,Dew PointF,Humidity,Sea Level PressureIn,VisibilityMPH,Wind Direction,Wind SpeedMPH,Gust SpeedMPH,PrecipitationIn,Events,Conditions,WindDirDegrees,DateUTC
12:53 AM,52.0,51.1,97,29.94,8.0,Calm,Calm,-,N/A,,Clear,0,2012-12-08 06:53:00
1:53 AM,52.0,51.1,97,29.94,10.0,South,3.5,-,N/A,,Clear,170,2012-12-08 07:53:00
2:53 AM,52.0,51.1,97,29.95,8.0,South,3.5,-,N/A,,Clear,190,2012-12-08 08:53:00
3:09 AM,51.8,48.2,88,29.93,1.5,Calm,Calm,-,N/A,,Clear,0,2012-12-08 09:09:00
3:32 AM,50.0,48.2,94,29.93,2.5,Calm,Calm,-,N/A,,Clear,0,2012-12-08 09:32:00
3:39 AM,50.0,48.2,94,29.93,5.0,ESE,3.5,-,N/A,,Clear,120,2012-12-08 09:39:00
3:53 AM,51.1,50.0,96,29.95,3.0,SE,3.5,-,N/A,,Partly Cloudy,130,2012-12-08 09:53:00
4:53 AM,55.0,54.0,96,29.96,4.0,Calm,Calm,-,N/A,,Mostly Cloudy,0,2012-12-08 10:53:00
5:13 AM,55.4,55.4,100,29.93,2.5,ESE,5.8,-,N/A,,Mostly Cloudy,120,2012-12-08 11:13:00
5:53 AM,55.9,55.0,97,29.96,2.5,SSE,4.6,-,N/A,,Overcast,150,2012-12-08 11:53:00
6:40 AM,55.4,53.6,94,29.95,1.0,SSE,3.5,-,N/A,,Clear,160,2012-12-08 12:40:00
6:53 AM,55.9,55.0,97,29.97,1.5,SE,4.6,-,N/A,,Clear,140,2012-12-08 12:53:00
7:14 AM,57.2,55.4,94,29.95,2.5,SSE,4.6,-,N/A,,Clear,150,2012-12-08 13:14:00
7:26 AM,57.2,57.2,100,29.95,3.0,SSE,4.6,-,N/A,,Partly Cloudy,150,2012-12-08 13:26:00
7:38 AM,57.2,57.2,100,29.95,2.5,SSE,5.8,-,N/A,,Scattered Clouds,150,2012-12-08 13:38:00
7:53 AM,57.9,57.9,100,29.98,1.8,SSE,4.6,-,N/A,,Mostly Cloudy,150,2012-12-08 13:53:00
8:06 AM,59.0,57.2,94,29.96,2.5,SSE,3.5,-,N/A,,Overcast,150,2012-12-08 14:06:00
8:15 AM,59.0,57.2,94,29.96,3.0,South,3.5,-,N/A,,Overcast,170,2012-12-08 14:15:00
8:46 AM,60.8,59.0,94,29.97,5.0,South,5.8,-,0.00,Rain,Light Rain,170,2012-12-08 14:46:00
8:53 AM,60.1,59.0,96,29.99,5.0,South,4.6,-,0.01,,Overcast,170,2012-12-08 14:53:00
9:53 AM,63.0,60.1,90,30.00,10.0,South,6.9,-,0.01,,Overcast,180,2012-12-08 15:53:00
10:53 AM,66.0,59.0,78,29.99,10.0,South,6.9,-,N/A,,Overcast,190,2012-12-08 16:53:00
11:53 AM,69.1,61.0,75,29.96,10.0,South,9.2,-,N/A,,Overcast,170,2012-12-08 17:53:00
12:53 PM,72.0,61.0,68,29.93,10.0,South,8.1,-,N/A,,Mostly Cloudy,180,2012-12-08 18:53:00
1:35 PM,73.4,60.8,65,29.90,10.0,South,8.1,-,N/A,,Overcast,170,2012-12-08 19:35:00
1:50 PM,73.4,60.8,65,29.89,10.0,SSE,8.1,-,N/A,,Overcast,160,2012-12-08 19:50:00
1:53 PM,73.0,60.1,64,29.91,10.0,South,6.9,-,N/A,,Overcast,180,2012-12-08 19:53:00
2:53 PM,72.0,60.1,66,29.91,10.0,South,4.6,-,N/A,,Overcast,180,2012-12-08 20:53:00
3:53 PM,72.0,61.0,68,29.92,10.0,SSE,5.8,-,N/A,,Overcast,150,2012-12-08 21:53:00
4:53 PM,69.1,61.0,75,29.92,10.0,SE,6.9,-,N/A,,Mostly Cloudy,130,2012-12-08 22:53:00
5:53 PM,66.9,61.0,81,29.93,10.0,SE,4.6,-,0.00,,Clear,140,2012-12-08 23:53:00
6:53 PM,66.0,60.1,81,29.95,10.0,SSE,4.6,-,N/A,,Partly Cloudy,160,2012-12-09 00:53:00
7:53 PM,64.0,60.1,87,29.95,10.0,SE,5.8,-,N/A,,Partly Cloudy,140,2012-12-09 01:53:00
8:53 PM,61.0,59.0,93,29.96,10.0,SSE,3.5,-,N/A,,Clear,150,2012-12-09 02:53:00
9:53 PM,61.0,59.0,93,29.96,10.0,SSE,5.8,-,N/A,,Clear,150,2012-12-09 03:53:00
10:53 PM,63.0,60.1,90,29.96,10.0,SSE,6.9,-,0.01,,Clear,160,2012-12-09 04:53:00
11:53 PM,64.0,60.1,87,29.95,10.0,South,8.1,-,N/A,,Mostly Cloudy,170,2012-12-09 05:53:00